Regional Weather Roundup
Issued by NWS

Home | Current Version | Previous Version | Text Only | Print | Product List | Glossary Off
Versions: 1 2 3 4 5 6 7 8 9 10 11 12 13 14 15 16 17 18 19 20 21 22 23 24 25 26 27 28 29 30 31 32 33 34 35 36 37 38 39 40 41 42 43 44 45 46 47 48 49 50

000
ASUS45 KPSR 101710
RWRAZ

ARIZONA REGIONAL HOURLY WEATHER ROUNDUP
NATIONAL WEATHER SERVICE PHOENIX AZ
1000 AM MST THU JUL 10 2014

NOTE: FAIR INDICATES FEW OR NO CLOUDS BELOW 12,000 FEET WITH NO
SIGNIFICANT WEATHER AND/OR OBSTRUCTIONS TO VISIBILITY.

AZZ001>003-036-101800-
NORTHWEST ARIZONA

CITY           SKY/WX    TMP DP  RH WIND       PRES   REMARKS
BULLHEAD CITY  PTSUNNY   93 N/A N/A SW14      29.87R
KINGMAN        PTSUNNY   83  61  47 S5        30.04F
$$

AZZ004>008-015-016-018-101800-
NORTH CENTRAL ARIZONA

CITY           SKY/WX    TMP DP  RH WIND       PRES   REMARKS
GRAND CANYON   CLOUDY    71  57  61 VRB5      30.27F
WILLIAMS         N/A     68  54  60 SW6       30.33F
PRESCOTT       PTSUNNY   79  55  43 W12       30.16F
FLAGSTAFF      MOSUNNY   69  52  54 S5        30.29F
PAYSON         CLOUDY    77  57  50 CALM      30.20F
PAGE           SUNNY     87  51  28 W6        30.07F
$$

AZZ009>014-017-101800-
NORTHEAST ARIZONA

CITY           SKY/WX    TMP DP  RH WIND       PRES   REMARKS
WINSLOW        SUNNY     84  53  34 MISG      30.15F
SAINT JOHNS    SUNNY     80  51  36 CALM      30.19F
WINDOW ROCK    SUNNY     76  51  41 CALM      30.28F
SHOW LOW       SUNNY     75  48  38 SW7       30.27F
$$

AZZ023-101800-
GREATER PHOENIX AREA

CITY           SKY/WX    TMP DP  RH WIND       PRES   REMARKS
PHOENIX        PTSUNNY   92  62  36 NW7       29.90F
BUCKEYE          N/A     91  64  40 S8        29.92S
GLENDALE       PTSUNNY   91  66  43 S9        29.92F
LUKE AFB       NOT AVBL
DEER VALLEY    CLOUDY    88  63  43 W3        29.93S
SCOTTSDALE     CLOUDY    89  63  41 CALM      29.95S
MESA-FALCON    CLOUDY    88  64  45 SW6       29.93S
MESA-GATEWAY   PTSUNNY   91  63  38 CALM      29.95S
CHANDLER       PTSUNNY   91  61  35 CALM      29.93S
$$

AZZ027-028-101800-
SOUTHWEST MARICOPA COUNTY AND PINAL COUNTY

CITY           SKY/WX    TMP DP  RH WIND       PRES   REMARKS
CASA GRANDE    MOSUNNY   90  63  40 CALM      29.94F
GILA BEND      MOSUNNY   93  64  38 SW1       29.92S
$$

AZZ503-504-507>509-101800-
SOUTHEAST ARIZONA

CITY           SKY/WX    TMP DP  RH WIND       PRES   REMARKS
TUCSON         MOSUNNY   85  60  42 SE7       30.03S
DAVIS-MONTHAN  PTSUNNY   84  61  45 NW5       30.02S
RYAN FIELD       N/A     88  59  37 CALM      30.01F
NOGALES        PTSUNNY   76  61  59 SE6       30.11S
SIERRA VISTA   PTSUNNY   79  55  44 W5        30.16S
DOUGLAS        SUNNY     79  59  50 VRB5      30.11F
SAFFORD        SUNNY     89  58  34 NW8       29.99F
$$

AZZ020-021-025-026-031-101800-
SOUTHWEST ARIZONA

CITY           SKY/WX    TMP DP  RH WIND       PRES   REMARKS
YUMA           NOT AVBL
$$

CAZ031-033-041-043-047-048-061-101800-
SOUTHERN CALIFORNIA

CITY           SKY/WX    TMP DP  RH WIND       PRES   REMARKS
DOWNTOWN L.A.  CLOUDY    73  61  65 CALM      29.97F
L.A. AIRPORT   PTSUNNY   72  60  66 W7        29.98F
SAN DIEGO      MOSUNNY   73  60  63 CALM      29.98F
BURBANK        CLOUDY    69  59  70 VRB5      29.98S
ONTARIO        MOSUNNY   73  61  65 CALM      29.98F
RIVERSIDE      SUNNY     73  62  68 W6        29.98F
PALM SPRINGS   MOSUNNY   92  63  38 E5        29.87F
EL CENTRO NAS  MOSUNNY   94  62  34 VRB3      29.83S
IMPERIAL       SUNNY     92  66  42 CALM      29.83S
BLYTHE         MOSUNNY   92  63  38 S9        29.85F
NEEDLES        TSTM      83  71  67 S7        29.89R
$$

NVZ020-UTZ003-101800-
SOUTHERN NEVADA-UTAH

CITY           SKY/WX    TMP DP  RH WIND       PRES   REMARKS
LAS VEGAS      CLOUDY    84  58  40 S14       29.91R
SALT LAKE CITY CLOUDY    81  58  45 S9        30.02S
$$

NMZ009-TXZ055-101800-
NEW MEXICO-WEST TEXAS

CITY           SKY/WX    TMP DP  RH WIND       PRES   REMARKS
ALBUQUERQUE    MOSUNNY   80  50  34 N5        30.19F
EL PASO        MOSUNNY   86  55  34 E7        30.07S
$$


........................KEY........................
SKY/WX - SKY CONDITION/WEATHER
TMP    - TEMPERATURE IN FAHRENHEIT
DP     - DEW POINT IN FAHRENHEIT
RH     - RELATIVE HUMIDITY IN PERCENT
WIND   - DIRECTION AND SPEED IN MILES PER HOUR (MPH)
VRB    - VARIABLE WIND DIRECTION
PRES   - MEAN SEA LEVEL PRESSURE IN INCHES OF MERCURY
         F - FALLING PRESSURE   R - RISING PRESSURE
         S - STEADY PRESSURE
VSB    - VISIBILITY IN MILES
HX     - HEAT INDEX IN FAHRENHEIT
WCI    - WIND CHILL INDEX IN FAHRENHEIT
TC     - TEMPERATURE IN CELSIUS WHICH IS ALSO KNOWN AS
         TEMPERATURE IN CENTIGRADE
AFB    - AIR FORCE BASE
         LUKE AFB IS LUKE AIR FORCE BASE
         DAVIS-MONTHAN IS DAVIS-MONTHAN AIR FORCE BASE
NAS    - NAVAL AIR STATION
         EL CENTRO NAS IS EL CENTRO NAVAL AIR STATION
N/A    - NOT AVAILABLE



USA.gov is the U.S. government's official web portal to all federal, state and local government web resources and services.